Main page
METAR-TAF:

METAR-TAF

Airports :

Lifuka Island Airport

Lifuka, Tonga

latitude: 19-46-36S, longitude: 174-20-28W, elevation: 9 m

Current weather observation

The report was made 3 hours and 6 minutes ago, at 12:00 UTC
Calm wind
Temperature 23°C
Humidity 89%
Pressure 1015 hPa
Visibility 10 km or more
Few clouds at a height of 1600 ft

METAR: NFTL 281200Z 00000KT 9999 FEW016 23/21 Q1015 RMK GRASS DEW

Time: 04:06 (15:06 UTC)


TAF: missing

Weather observations and forecasts of more than 4000 airports (METAR and TAF reports).

The available stations are represented by yellow and red dots on the map.

Hover mouse over dot to see the name of the station.

Then click to see weather observations and forecasts.

To change the map : click on the green buttons with a black cross to zoom in, on the green button with a dash to zoom out, or on the green arrows for adjacent maps.


METAR-TAF: